INTELSAT 33E DEB, 64401

Orbit data source: Space-Track

INTELSAT 33E DEB, 64401 is space debris in GEO originally from a launch on Wed, 24 Aug 2016 UTC launched from the French Guiana (FRGUI). Debris objects in space refer to the collection of defunct objects orbiting the Earth. Examples of debris include non-operational satellites, rocket bodies, and fragments generated from explosions, collisions, or faulty payload assembly.

Loading next visibility...
Identifier
64401, 2016-053AF
Orbit
GEO
Country
Flag of USUS / ITSO
Related business
Manufacturer
Boeing/ES
Mission
Spacecraft
Bus & Motor
Unknown
Mass
Unknown
Launch date (UTC)
2016-08-24 (10 years ago)
Launch vehicle
Unknown
Launch site
French Guiana (FRGUI)
Object type
Payload
Rocket body
Debris
Shape & HBR
Unknown shape, 1.1 m
Radar Cross Section
RCS unknown

Expand to show TLE details & history
Last TLE update: 2 months ago

TLE from 2 months ago
0 INTELSAT 33E DEB
1 64401U 16053AF  26207.61973246 -.00000187  00000-0  00000-0 0  9992
2 64401   1.5628  71.4430 0671253 344.5134  13.3663  1.05820814  6722
Epoch: 2026-07-26T14:52Z
TLE epoch observation values (Epoch: 2026-07-26T14:52:24.884Z)
Latitude
0.00001°
Longitude
-96.18784°
Altitude
31,657.725 km
Speed
3.341 km/s
True Right ascension
04h 44m 55s
True Declination
0° 00' 00"
Sunlit
Object was in daylight at epoch
Visualization orbit readout
Latitude
Unknown
Longitude
Unknown
Altitude
Unknown
Speed
Unknown
Apparent Right ascension
Unknown
Apparent Declination
Unknown
Sunlit
N/A
Visualization observer readout
Local Sidereal Time
01:02:50
Azimuth
Unknown
Elevation
Unknown
Doppler factor
Unknown
Orbital elements
Apogee altitude
37,031.06 km
Perigee altitude
31,569.929 km
Semi-major axis
40,678.632 km
Eccentricity
0.06713
Inclination
1.5628°
RAAN
71.443°
Arg. of periapsis
344.5134°
True anomaly
15.30157°
Mean anomaly
13.3663°
Eccentric anomaly
14.31739°
Mean motion
0.26454 °/min
Orbital period
1,360.85 mins
BSTAR
0
Loading maneuver chart data...
Computing Atmospheric mass density...
Loading historical data...
Loading historical data...
Loading historical data...
Loading historical data...
Loading historical data...
Loading historical data...
Loading historical data...

Documentation

Showing up to 5 results
|